Flag for Croatia Weather past 2 weeks in Zagreb, Croatia

Now
64 °F

Passing clouds.


Feels Like: 64 °F
Forecast: 55 / 72 °F
Wind: 15 mph from West

Location: Zagreb / Pleso

Current Time: Apr 26, 2015 at 10:44:07 AM

Latest Report: Apr 26, 2015 at 10:00 AM


Visibility: N/A

Pressure: 29.89 "Hg

Humidity: 52%

Dew point: 46 °F

Location of ZagrebLocation

Historic Weather in Zagreb — Graph

°F

Zagreb temperature yesterday

Maximum temperature yesterday: 73 °F (at 4:00 PM)
Minimum temperature yesterday: 43 °F (at 4:30 AM)
Average temperature yesterday: 58 °F

Past Weeks' High & Low Weather Summary

 TemperatureHumidityPressure
High81 °F (Apr 16, 2:30 PM)100% (Apr 19, 4:30 AM)30.42 "Hg (Apr 19, 4:30 AM)
Low32 °F (Apr 19, 4:30 AM)19% (Apr 15, 4:00 PM)29.86 "Hg (Apr 17, 5:00 PM)
Average57 °F58%30.11 "Hg
* Reported Apr 11 9:00 AM — Apr 26 9:30 AM, Zagreb, Weather by CustomWeather, © 2015

Note: Actual official high and low records may vary slightly from our data, if they occured in-between our weather recording intervals... More about our weather records

Advertising

Zagreb weather history for previous 24 hours

 ConditionsComfort  
Time TempWeatherWind HumidityBarometerVisibility
9:30 AM
Sun, Apr 26
64 °FPassing clouds.12 mph56%29.89 "HgN/A
9:00 AM63 °FPassing clouds.13 mph59%29.89 "HgN/A
8:30 AM61 °FPassing clouds.14 mph63%29.89 "HgN/A
8:00 AM59 °FPassing clouds.8 mph63%29.89 "HgN/A
7:30 AM55 °FPassing clouds.5 mph72%29.89 "HgN/A
7:00 AM54 °FPassing clouds.6 mph77%29.89 "HgN/A
6:30 AM52 °FClear.6 mph77%29.89 "Hg10 mi
6:00 AM50 °FClear.6 mph82%29.89 "Hg10 mi
5:30 AM52 °FClear.7 mph77%29.89 "Hg10 mi
5:00 AM52 °FClear.6 mph77%29.89 "Hg10 mi
4:30 AM52 °FClear.7 mph77%29.89 "Hg10 mi
4:00 AM55 °FClear.9 mph67%29.89 "Hg10 mi
3:30 AM54 °FClear.12 mph72%29.89 "Hg10 mi
3:00 AM55 °FPassing clouds.8 mph67%29.92 "HgN/A
2:30 AM55 °FPassing clouds.5 mph67%29.92 "HgN/A
2:00 AM57 °FClear.7 mph63%29.92 "Hg10 mi
1:30 AM57 °FClear.10 mph63%29.92 "Hg10 mi
1:00 AM59 °FPassing clouds.14 mph59%29.92 "HgN/A
12:30 AM57 °FPassing clouds.8 mph63%29.92 "HgN/A
12:00 AM57 °FPassing clouds.12 mph63%29.92 "HgN/A
11:00 PM
Sat, Apr 25
59 °FClear.12 mph59%29.92 "Hg10 mi
10:30 PM59 °FClear.12 mph59%29.92 "Hg10 mi
10:00 PM59 °FClear.10 mph59%29.92 "Hg10 mi
9:30 PM59 °FPassing clouds.9 mph63%29.92 "HgN/A
9:00 PM59 °FClear.8 mph63%29.92 "Hg10 mi
8:30 PM63 °FSunny.10 mph56%29.92 "Hg10 mi
8:00 PM63 °FSunny.10 mph56%29.92 "Hg10 mi
7:30 PM64 °FSunny.12 mph52%29.92 "Hg10 mi
7:00 PM66 °FPassing clouds.10 mph49%29.92 "HgN/A
6:30 PM68 °FSunny.16 mph46%29.92 "Hg10 mi
6:00 PM70 °FPassing clouds.16 mph40%29.92 "HgN/A
5:30 PM70 °FPassing clouds.17 mph43%29.92 "HgN/A
5:00 PM72 °FPassing clouds.14 mph38%29.92 "HgN/A
4:30 PM72 °FPassing clouds.15 mph41%29.92 "HgN/A
4:00 PM73 °FPassing clouds.13 mph41%29.92 "HgN/A
3:30 PM72 °FSunny.14 mph41%29.92 "Hg10 mi
3:00 PM72 °FPassing clouds.12 mph41%29.95 "HgN/A
2:30 PM72 °FPassing clouds.9 mph41%29.95 "HgN/A
2:00 PM70 °FPassing clouds.12 mph43%29.98 "HgN/A
1:30 PM70 °FPassing clouds.13 mph43%29.98 "HgN/A
1:00 PM68 °FPassing clouds.12 mph49%29.98 "HgN/A
12:30 PM68 °FPassing clouds.10 mph46%30.01 "HgN/A
12:00 PM66 °FPassing clouds.10 mph49%30.01 "HgN/A
11:30 AM66 °FPassing clouds.9 mph52%30.01 "HgN/A
11:00 AM64 °FPassing clouds.9 mph56%30.04 "HgN/A
10:30 AM63 °FPassing clouds.9 mph59%30.04 "HgN/A
10:00 AM61 °FPassing clouds.9 mph63%30.04 "HgN/A
Weather by CustomWeather, © 2015

See weather overviewHow to use our weather pages